Location: Mahannah Oil Field
(37.4664°N, 96.6003°W)
Time: 10:52:32
(UTC+00:00)

Altair - Pass Details

Date: 29 January 2021
Orbit: 1501 x 1682 km, 47.2° (Epoch: 24 February)

Event Time Altitude Azimuth Distance (km) Brightness Sun altitude
Exits shadow 12:56:20 - 285° (WNW) 4,060 9.0 -7.5°
Reaches altitude 10° 12:56:51 10° 286° (WNW) 3,914 8.9 -7.4°
Maximum altitude 13:06:33 49° 360° (N) 2,090 8.1 -5.6°
Drops below altitude 10° 13:16:18 10° 73° (ENE) 3,938 10.6 -3.7°
Sets 13:19:39 0° 79° (E) 4,915 11.3 -3.1°
